Regional Weather Roundup
Issued by NWS Mobile, AL

Home | Current Version | Previous Version | Text Only | Print | Product List | Glossary On
Versions: 1 2 3 4 5 6 7 8 9 10 11 12 13 14 15 16 17 18 19 20 21 22 23 24 25 26 27 28 29 30 31 32 33 34 35 36 37 38 39 40 41 42 43 44 45 46 47 48 49 50
000
ASUS44 KMOB 302116
RWRMOB
REGIONAL WEATHER ROUNDUP
NATIONAL WEATHER SERVICE MOBILE AL
400 PM CDT TUE JUN 30 2015

ALZ061>064-302200-
COASTAL ALABAMA


CITY           SKY/WX    TMP DP  RH WIND       PRES   REMARKS
MOBILE REG APT MOSUNNY   83  67  58 VRB6      30.05F
BROOKLEY FIELD MOSUNNY   80  67  64 E5        30.06F
GULF SHORES    PTCLDY    83  67  58 N3        30.03F

$$

ALZ051>060-302200-
INTERIOR SOUTHWEST AND SOUTH CENTRAL ALABAMA


CITY           SKY/WX    TMP DP  RH WIND       PRES   REMARKS
ANDALUSIA/OPP  CLOUDY    74  68  81 S5        29.95F
EVERGREEN      CLOUDY    77  70  79 W6        30.00F
FLORALA        CLOUDY    70  67  90 SW7       30.01F
GREENVILLE     FAIR      74  64  71 NW6       29.97F

$$

FLZ001>006-302200-
WESTERN FLORIDA PANHANDLE


CITY           SKY/WX    TMP DP  RH WIND       PRES   REMARKS
CRESTVIEW      CLOUDY    70  70 100 SE6       30.03F
DESTIN         PTSUNNY   74  69  85 N13       30.04F
DUKE FIELD     PTSUNNY   70  67  88 SE1       30.02F
MARY ESTHER    PTSUNNY   79  66  64 N10       30.02F
MILTON         MOCLDY    82  67  60 CALM      30.02F
PENSACOLA      PTSUNNY   80  66  62 VRB5      30.03F
NAS PENSACOLA  MOSUNNY   81  66  60 NE7       30.03F
VALPARAISO     MOSUNNY   73  68  86 N6        30.04F

$$

...MARINE OBSERVATIONS...

STATION/POSITION TIME  SKY/WX   TEMP    WIND        PRES    VSBY
                                AIR SEA DIR/SP/G
                 (UTC)          (F)     (DEG/KT/KT) (MB)    (MI)
PASCAGOULA       2000            80      40/  9/ 12 1018.2F
PETIT BOIS ISL   2000            80      30/ 15/ 19 1019.0F
E DAUPHIN ISLAND 2100            79      30/  3/  4 1017.2F
MIDDLE BAY LIGHT 2000            76      20/ 16     1018.0F
USCG MOBILE BAY  2000            78 83   50/  6/  9 1017.1F
STATE DOCKS      2000               85              1017.8F
MEAHER PARK      2100            81     330/  5     1016.3F
FORT MORGAN      2000            77      30/ 16/ 19 1018.5S
12 S ORANGE BCH  2050            78 85   20/  8/ 10 1017.1F
WVE H/P(F/S)=  2/ 3

PENSACOLA BAY    2000            77 85  360/  9/ 17 1019.4R
64 S DAUPHIN ISL 2050            83 88  320/ 14/ 19 1018.1F
WVE H/P(F/S)=  1/ 4

67 S FORT MORGAN 2030            85     290/ 12     1018.3F
115 SE PENSACOLA 2050            84 84  280/ 10/ 12 1018.9F
WVE H/P(F/S)=  2/ 5

MID GULF/42001   2050            85 87  140/ 10/ 12 1018.2F
WVE H/P(F/S)=  1/ 5

EAST GULF/42003  2050            85 86  200/  2/  4 1018.7F
WVE H/P(F/S)=  2/ 8


$$

...NEARBY LOCATIONS

CITY           SKY/WX    TMP DP  RH WIND       PRES   REMARKS
GULFPORT       PTSUNNY   79  71  76 E7        30.03F
BILOXI         MOSUNNY   77  70  78 CALM      30.03F
PASCAGOULA     MOSUNNY   81  70  69 CALM      30.04F
HATTIESBURG    SUNNY     86  72  62 S6        30.02F
LAUREL         SUNNY     82  72  69 S6        30.03F
MERIDIAN       PTSUNNY   76  68  76 S3        30.00F
MERIDIAN NAS   PTSUNNY   79  68  69 S7        29.99F
MONTGOMERY     CLOUDY    78  65  63 NW7       29.98F
MAXWELL AFB    CLOUDY    78  67  68 W7        29.97F
TROY           LGT RAIN  78  63  59 W5        30.00F
FORT RUCKER    CLOUDY    73  65  75 VRB5      30.00F
DALEVILLE      LGT RAIN  73  66  78 W8        30.02F
DOTHAN         CLOUDY    76  69  79 W9        30.06F

$$

...OTHER SURROUNDING LOCATIONS...

CITY           SKY/WX    TMP DP  RH WIND       PRES   REMARKS
BIRMINGHAM     CLOUDY    82  65  56 W13G20    30.00F
TUSCALOOSA     PTSUNNY   79  67  66 S6        29.97F
COLUMBUS GA    MOSUNNY   86  63  45 W13G24    29.99R
PANAMA CITY    NOT AVBL
TALLAHASSEE    PTSUNNY   87  72  60 W10       30.03F
BATON ROUGE    TSTM      71  68  90 E7        30.07F
NEW ORLEANS    PTSUNNY   89  66  46 SW10      30.05S
SLIDELL        LGT RAIN  87  77  72 W5        30.03S HX  99
JACKSON        PTSUNNY   87  75  67 SW14      29.98F HX  96
MCCOMB         MOSUNNY   87  75  67 SW6       30.03S HX  96

$$

...SURROUNDING MARINE OBSERVATIONS...

STATION/POSITION TIME  SKY/WX   TEMP    WIND        PRES    VSBY
                                AIR SEA DIR/SP/G
                 (UTC)          (F)     (DEG/KT/KT) (MB)    (MI)
WAVELAND         2000            85 87  340/  4/  6 1017.7F
PASCAGOULA RGN A 2000            81      50/  8/ 13 1018.0F
PASCAGOULA PORT  2000               86                N/A
GRAND ISLE       2000            86 83  210/  6/ 12 1018.3F
SOUTHWEST PASS   2100            78     310/  4/  6 1019.1R
PILOT STATION E  2000            90 84  260/  7/  9 1019.1F
SHELL BEACH      2000            87 84  190/ 11/ 14 1017.5F
PANAMA CITY      2000            84 86  240/ 17/ 19 1017.1F
APALACHICOLA     2000            87 82  280/ 11/ 18 1017.8F
TYNDALL TOWER C  2100            83     250/ 14/ 16 1018.1F
S APLCHCLA/42036 2050            85 85  250/ 12/ 14 1018.8F
WVE H/P(F/S)=  3/ 5


$$




USA.gov is the U.S. government's official web portal to all federal, state and local government web resources and services.